QPF
0.00 0.00 0.00 0.00 0.00 0.00 0.00 0.00 0.00 0.00 0.00 0.00 0.00 0.00 0.00 0.00 0.00 0.00 0.00 0.00 0.00 0.00 0.00 0.00 0.00 0.01 0.01 0.02 0.02 0.03 0.04 0.04 0.03 0.02 0.02 0.03 0.04 0.03 0.02 0.03 0.05 0.06 0.05 0.04
0.00 0.00 0.00 0.00 0.00 0.00 0.00 0.00 0.00 0.00 0.00 0.00 0.00 0.00 0.00 0.00 0.00 0.00 0.00 0.00 0.00 0.00 0.00 0.00 0.00 0.00 0.01 0.02 0.02 0.02 0.03 0.04 0.03 0.02 0.02 0.03 0.04 0.04 0.03 0.03 0.04 0.05 0.05 0.05
0.00 0.00 0.00 0.00 0.00 0.00 0.00 0.00 0.00 0.00 0.00 0.00 0.00 0.00 0.00 0.00 0.00 0.00 0.00 0.00 0.00 0.00 0.00 0.00 0.00 0.00 0.00 0.01 0.02 0.02 0.02 0.03 0.03 0.03 0.03 0.03 0.03 0.03 0.03 0.03 0.03 0.04 0.06 0.06
0.01 0.00 0.00 0.00 0.00 0.00 0.00 0.00 0.00 0.00 0.01 0.00 0.00 0.00 0.00 0.00 0.00 0.00 0.00 0.00 0.00 0.00 0.00 0.00 0.00 0.00 0.00 0.00 0.01 0.01 0.01 0.01 0.02 0.03 0.04 0.03 0.02 0.02 0.02 0.02 0.02 0.03 0.05 0.07
0.00 0.00 0.00 0.00 0.00 0.00 0.00 0.00 0.00 0.00 0.01 0.01 0.00 0.00 0.00 0.00 0.00 0.00 0.00 0.00 0.00 0.00 0.00 0.00 0.00 0.00 0.00 0.00 0.01 0.01 0.01 0.01 0.01 0.02 0.04 0.04 0.03 0.02 0.02 0.02 0.02 0.03 0.03 0.05
0.00 0.00 0.00 0.00 0.00 0.00 0.00 0.00 0.01 0.01 0.01 0.01 0.00 0.00 0.00 0.00 0.01 0.00 0.01 0.01 0.01 0.01 0.00 0.01 0.01 0.01 0.00 0.00 0.00 0.01 0.01 0.01 0.01 0.01 0.02 0.04 0.04 0.03 0.03 0.02 0.02 0.02 0.02 0.03
0.01 0.00 0.00 0.00 0.00 0.00 0.00 0.01 0.01 0.01 0.01 0.00 0.00 0.00 0.01 0.01 0.01 0.01 0.01 0.01 0.01 0.00 0.00 0.01 0.01 0.00 0.00 0.00 0.00 0.00 0.01 0.01 0.01 0.01 0.01 0.02 0.03 0.04 0.04 0.03 0.02 0.02 0.02 0.02
0.00 0.00 0.00 0.00 0.00 0.00 0.00 0.01 0.01 0.01 0.01 0.00 0.00 0.01 0.01 0.01 0.01 0.01 0.01 0.01 0.01 0.01 0.01 0.00 0.00 0.00 0.00 0.00 0.01 0.01 0.01 0.02 0.02 0.01 0.01 0.01 0.01 0.03 0.04 0.05 0.05 0.03 0.02 0.02
0.01 0.00 0.00 0.00 0.00 0.00 0.00 0.00 0.01 0.02 0.01 0.01 0.01 0.01 0.01 0.01 0.01 0.01 0.01 0.01 0.01 0.01 0.01 0.01 0.01 0.01 0.01 0.01 0.01 0.01 0.01 0.02 0.02 0.02 0.01 0.01 0.01 0.02 0.03 0.04 0.05 0.06 0.05 0.03
0.01 0.01 0.00 0.00 0.00 0.00 0.00 0.00 0.00 0.02 0.02 0.02 0.01 0.01 0.01 0.01 0.01 0.01 0.01 0.01 0.01 0.01 0.01 0.01 0.02 0.02 0.01 0.01 0.01 0.01 0.01 0.02 0.02 0.02 0.02 0.02 0.02 0.02 0.03 0.04 0.04 0.05 0.06 0.05
0.01 0.02 0.01 0.01 0.01 0.01 0.01 0.01 0.01 0.02 0.02 0.03 0.02 0.01 0.01 0.01 0.01 0.01 0.01 0.01 0.01 0.01 0.01 0.01 0.01 0.01 0.02 0.01 0.01 0.01 0.01 0.02 0.02 0.03 0.03 0.03 0.03 0.03 0.04 0.04 0.04 0.04 0.04 0.06
0.01 0.02 0.01 0.01 0.01 0.01 0.02 0.02 0.03 0.04 0.03 0.02 0.02 0.02 0.01 0.01 0.01 0.01 0.01 0.01 0.01 0.01 0.01 0.01 0.01 0.01 0.01 0.01 0.01 0.01 0.01 0.01 0.01 0.01 0.02 0.02 0.02 0.02 0.02 0.02 0.03 0.03 0.03 0.05
0.03 0.03 0.03 0.01 0.01 0.01 0.02 0.03 0.03 0.05 0.05 0.03 0.03 0.02 0.01 0.01 0.01 0.01 0.01 0.01 0.02 0.02 0.01 0.02 0.02 0.01 0.01 0.01 0.01 0.01 0.01 0.01 0.01 0.01 0.01 0.02 0.02 0.01 0.01 0.01 0.01 0.02 0.02 0.03
0.04 0.04 0.03 0.02 0.01 0.02 0.02 0.02 0.03 0.04 0.05 0.04 0.03 0.02 0.01 0.01 0.01 0.01 0.02 0.02 0.02 0.02 0.01 0.01 0.01 0.01 0.01 0.01 0.01 0.01 0.01 0.01 0.01 0.01 0.01 0.01 0.01 0.01 0.01 0.01 0.01 0.01 0.02 0.03
0.01 0.02 0.01 0.01 0.01 0.02 0.02 0.01 0.02 0.03 0.03 0.04 0.03 0.02 0.02 0.02 0.02 0.02 0.02 0.02 0.02 0.01 0.01 0.01 0.01 0.01 0.01 0.01 0.01 0.01 0.01 0.01 0.01 0.01 0.01 0.01 0.01 0.01 0.01 0.01 0.01 0.01 0.02 0.03
0.01 0.02 0.01 0.01 0.01 0.01 0.01 0.01 0.01 0.01 0.02 0.02 0.02 0.02 0.02 0.02 0.02 0.02 0.02 0.02 0.02 0.01 0.01 0.01 0.01 0.01 0.01 0.01 0.01 0.01 0.01 0.01 0.01 0.01 0.01 0.01 0.01 0.01 0.01 0.01 0.01 0.02 0.02 0.03
0.01 0.02 0.02 0.01 0.01 0.01 0.01 0.01 0.01 0.01 0.01 0.02 0.02 0.02 0.02 0.01 0.02 0.02 0.02 0.02 0.02 0.02 0.02 0.01 0.01 0.01 0.01 0.01 0.01 0.01 0.01 0.01 0.01 0.01 0.01 0.01 0.01 0.02 0.02 0.02 0.02 0.02 0.02 0.03
0.01 0.01 0.02 0.02 0.01 0.01 0.01 0.01 0.01 0.01 0.01 0.01 0.02 0.02 0.02 0.02 0.02 0.02 0.02 0.02 0.02 0.02 0.01 0.01 0.01 0.01 0.01 0.01 0.01 0.01 0.01 0.01 0.01 0.01 0.01 0.01 0.01 0.02 0.02 0.02 0.02 0.02 0.02 0.02
0.01 0.02 0.03 0.02 0.01 0.01 0.01 0.01 0.01 0.01 0.01 0.01 0.01 0.01 0.01 0.01 0.01 0.01 0.02 0.01 0.02 0.01 0.01 0.01 0.01 0.01 0.01 0.01 0.01 0.01 0.01 0.01 0.01 0.01 0.01 0.01 0.01 0.02 0.02 0.02 0.02 0.03 0.03 0.03
0.01 0.02 0.03 0.03 0.02 0.01 0.00 0.00 0.00 0.01 0.01 0.01 0.01 0.01 0.01 0.01 0.01 0.01 0.01 0.01 0.01 0.01 0.01 0.01 0.01 0.01 0.01 0.02 0.02 0.02 0.02 0.02 0.02 0.02 0.02 0.02 0.02 0.02 0.02 0.02 0.03 0.03 0.03 0.03
0.01 0.02 0.03 0.02 0.02 0.01 0.00 0.00 0.01 0.01 0.01 0.01 0.01 0.01 0.01 0.01 0.01 0.01 0.01 0.01 0.01 0.01 0.01 0.01 0.01 0.02 0.02 0.02 0.02 0.02 0.02 0.02 0.02 0.02 0.02 0.02 0.02 0.02 0.02 0.03 0.03 0.03 0.03 0.03
0.01 0.01 0.02 0.02 0.02 0.01 0.01 0.01 0.01 0.01 0.01 0.01 0.01 0.01 0.01 0.01 0.01 0.01 0.01 0.01 0.01 0.01 0.01 0.01 0.02 0.02 0.02 0.02 0.02 0.02 0.02 0.02 0.03 0.02 0.02 0.02 0.02 0.03 0.03 0.03 0.03 0.04 0.04 0.04
0.01 0.01 0.02 0.01 0.01 0.01 0.01 0.01 0.01 0.01 0.02 0.01 0.01 0.01 0.01 0.01 0.01 0.01 0.01 0.01 0.01 0.01 0.01 0.02 0.02 0.02 0.02 0.02 0.03 0.03 0.03 0.03 0.03 0.03 0.03 0.03 0.03 0.03 0.04 0.04 0.03 0.04 0.05 0.05
0.01 0.01 0.01 0.01 0.01 0.01 0.01 0.01 0.01 0.01 0.02 0.01 0.01 0.01 0.01 0.01 0.01 0.01 0.01 0.01 0.01 0.01 0.01 0.02 0.03 0.02 0.02 0.02 0.02 0.03 0.03 0.03 0.04 0.03 0.03 0.03 0.03 0.03 0.03 0.04 0.04 0.04 0.04 0.04
0.01 0.01 0.01 0.01 0.01 0.01 0.01 0.01 0.01 0.01 0.01 0.01 0.01 0.01 0.01 0.01 0.01 0.01 0.01 0.01 0.01 0.01 0.02 0.02 0.03 0.03 0.03 0.02 0.02 0.02 0.03 0.04 0.03 0.03 0.03 0.03 0.04 0.04 0.03 0.04 0.04 0.04 0.04 0.04
0.01 0.01 0.01 0.01 0.01 0.02 0.01 0.01 0.01 0.01 0.01 0.01 0.01 0.01 0.01 0.01 0.01 0.01 0.01 0.01 0.01 0.02 0.02 0.03 0.03 0.03 0.02 0.02 0.01 0.02 0.03 0.03 0.03 0.03 0.03 0.03 0.04 0.04 0.04 0.04 0.04 0.04 0.04 0.04
MSLP
1020.90 1021.30 1021.60 1021.78 1021.86 1021.89 1021.93 1022.05 1022.33 1022.80 1023.46 1024.28 1025.19 1026.11 1026.94 1027.59 1028.04 1028.24 1028.21 1028.00 1027.64 1027.18 1026.67 1026.14 1025.60 1025.06 1024.52 1023.99 1023.50 1023.06 1022.71 1022.48 1022.39 1022.45 1022.62 1022.89 1023.20 1023.50 1023.74 1023.89 1023.94 1023.92 1023.84 1023.74
1022.26 1022.63 1022.91 1023.08 1023.16 1023.20 1023.25 1023.37 1023.62 1024.01 1024.54 1025.19 1025.90 1026.61 1027.26 1027.78 1028.14 1028.34 1028.37 1028.26 1028.04 1027.72 1027.33 1026.87 1026.35 1025.78 1025.17 1024.54 1023.94 1023.41 1022.98 1022.70 1022.59 1022.63 1022.82 1023.09 1023.40 1023.69 1023.92 1024.05 1024.09 1024.05 1023.97 1023.87
1023.47 1023.77 1024.00 1024.15 1024.25 1024.31 1024.40 1024.54 1024.77 1025.09 1025.51 1025.99 1026.50 1026.99 1027.44 1027.81 1028.08 1028.26 1028.35 1028.36 1028.28 1028.12 1027.87 1027.51 1027.05 1026.48 1025.83 1025.14 1024.46 1023.84 1023.34 1023.00 1022.84 1022.86 1023.02 1023.27 1023.55 1023.82 1024.02 1024.12 1024.15 1024.10 1024.02 1023.95
1024.47 1024.70 1024.87 1025.01 1025.13 1025.26 1025.41 1025.61 1025.85 1026.14 1026.46 1026.78 1027.09 1027.37 1027.60 1027.79 1027.96 1028.10 1028.23 1028.34 1028.40 1028.40 1028.30 1028.07 1027.70 1027.18 1026.53 1025.81 1025.07 1024.38 1023.81 1023.41 1023.19 1023.14 1023.24 1023.44 1023.66 1023.87 1024.02 1024.10 1024.10 1024.06 1023.99 1023.94
1025.29 1025.43 1025.56 1025.70 1025.88 1026.10 1026.36 1026.65 1026.96 1027.24 1027.49 1027.67 1027.78 1027.83 1027.84 1027.85 1027.87 1027.94 1028.07 1028.24 1028.43 1028.57 1028.63 1028.54 1028.28 1027.83 1027.23 1026.52 1025.76 1025.03 1024.41 1023.94 1023.64 1023.50 1023.51 1023.61 1023.75 1023.88 1023.96 1023.99 1023.98 1023.94 1023.90 1023.88
1025.95 1026.02 1026.13 1026.30 1026.57 1026.91 1027.31 1027.73 1028.12 1028.43 1028.63 1028.69 1028.62 1028.46 1028.24 1028.03 1027.89 1027.85 1027.94 1028.14 1028.40 1028.66 1028.85 1028.90 1028.77 1028.43 1027.90 1027.23 1026.49 1025.75 1025.09 1024.55 1024.17 1023.94 1023.83 1023.82 1023.84 1023.87 1023.87 1023.85 1023.81 1023.77 1023.76 1023.79
1026.51 1026.53 1026.63 1026.87 1027.24 1027.72 1028.28 1028.85 1029.34 1029.70 1029.87 1029.83 1029.60 1029.23 1028.79 1028.37 1028.04 1027.88 1027.89 1028.07 1028.36 1028.70 1029.00 1029.17 1029.16 1028.93 1028.50 1027.91 1027.22 1026.49 1025.81 1025.23 1024.77 1024.43 1024.21 1024.06 1023.96 1023.88 1023.80 1023.72 1023.65 1023.61 1023.62 1023.70
1027.02 1027.00 1027.13 1027.43 1027.91 1028.54 1029.25 1029.95 1030.54 1030.95 1031.10 1030.98 1030.62 1030.08 1029.44 1028.82 1028.33 1028.02 1027.93 1028.06 1028.35 1028.73 1029.09 1029.35 1029.44 1029.33 1029.00 1028.50 1027.87 1027.19 1026.51 1025.90 1025.38 1024.96 1024.63 1024.37 1024.14 1023.95 1023.78 1023.64 1023.54 1023.50 1023.53 1023.63
1027.50 1027.47 1027.62 1027.99 1028.56 1029.30 1030.13 1030.93 1031.60 1032.04 1032.18 1032.00 1031.54 1030.87 1030.09 1029.32 1028.68 1028.25 1028.06 1028.12 1028.38 1028.76 1029.15 1029.47 1029.63 1029.60 1029.37 1028.95 1028.41 1027.78 1027.14 1026.53 1025.98 1025.49 1025.07 1024.71 1024.38 1024.09 1023.84 1023.64 1023.50 1023.45 1023.49 1023.61
1027.97 1027.95 1028.13 1028.54 1029.17 1029.97 1030.85 1031.70 1032.40 1032.84 1032.96 1032.74 1032.22 1031.46 1030.60 1029.74 1029.02 1028.51 1028.25 1028.26 1028.47 1028.82 1029.20 1029.54 1029.74 1029.76 1029.60 1029.27 1028.80 1028.25 1027.66 1027.07 1026.51 1025.99 1025.51 1025.07 1024.66 1024.29 1023.97 1023.71 1023.54 1023.46 1023.49 1023.61
1028.46 1028.46 1028.66 1029.08 1029.71 1030.50 1031.36 1032.18 1032.83 1033.23 1033.31 1033.06 1032.51 1031.74 1030.87 1030.01 1029.27 1028.74 1028.46 1028.43 1028.60 1028.91 1029.26 1029.58 1029.78 1029.84 1029.72 1029.45 1029.05 1028.57 1028.03 1027.49 1026.95 1026.42 1025.91 1025.42 1024.96 1024.52 1024.14 1023.82 1023.60 1023.49 1023.49 1023.59
1028.98 1029.02 1029.22 1029.62 1030.19 1030.90 1031.65 1032.36 1032.90 1033.21 1033.23 1032.95 1032.40 1031.67 1030.85 1030.06 1029.38 1028.90 1028.64 1028.61 1028.76 1029.03 1029.34 1029.62 1029.80 1029.84 1029.75 1029.51 1029.17 1028.75 1028.28 1027.78 1027.27 1026.76 1026.24 1025.73 1025.22 1024.74 1024.30 1023.93 1023.66 1023.50 1023.46 1023.52
1029.55 1029.64 1029.83 1030.17 1030.63 1031.19 1031.77 1032.28 1032.66 1032.83 1032.76 1032.45 1031.94 1031.28 1030.57 1029.90 1029.34 1028.96 1028.78 1028.78 1028.93 1029.17 1029.43 1029.65 1029.78 1029.80 1029.70 1029.48 1029.18 1028.81 1028.39 1027.94 1027.47 1026.98 1026.47 1025.94 1025.41 1024.89 1024.41 1024.00 1023.67 1023.46 1023.37 1023.38
1030.21 1030.33 1030.51 1030.75 1031.06 1031.42 1031.76 1032.04 1032.21 1032.21 1032.04 1031.69 1031.22 1030.66 1030.09 1029.58 1029.18 1028.94 1028.86 1028.91 1029.07 1029.29 1029.50 1029.66 1029.74 1029.71 1029.59 1029.38 1029.09 1028.76 1028.38 1027.98 1027.54 1027.08 1026.58 1026.06 1025.51 1024.96 1024.44 1023.99 1023.62 1023.35 1023.20 1023.17
1030.93 1031.08 1031.22 1031.35 1031.48 1031.60 1031.69 1031.71 1031.64 1031.47 1031.19 1030.81 1030.38 1029.93 1029.51 1029.18 1028.96 1028.86 1028.88 1029.00 1029.18 1029.37 1029.53 1029.63 1029.64 1029.57 1029.42 1029.19 1028.92 1028.61 1028.27 1027.90 1027.49 1027.05 1026.57 1026.04 1025.49 1024.93 1024.39 1023.90 1023.48 1023.18 1022.98 1022.90
1031.65 1031.81 1031.88 1031.89 1031.83 1031.72 1031.55 1031.32 1031.04 1030.70 1030.33 1029.93 1029.55 1029.21 1028.94 1028.77 1028.71 1028.74 1028.86 1029.03 1029.21 1029.38 1029.49 1029.52 1029.48 1029.36 1029.17 1028.93 1028.66 1028.36 1028.04 1027.70 1027.32 1026.90 1026.43 1025.91 1025.36 1024.80 1024.25 1023.74 1023.30 1022.96 1022.73 1022.60
1032.29 1032.41 1032.40 1032.26 1032.02 1031.70 1031.31 1030.88 1030.42 1029.96 1029.52 1029.13 1028.81 1028.58 1028.44 1028.42 1028.48 1028.62 1028.80 1028.99 1029.16 1029.29 1029.34 1029.32 1029.22 1029.05 1028.83 1028.58 1028.30 1028.02 1027.71 1027.38 1027.02 1026.62 1026.16 1025.66 1025.13 1024.58 1024.04 1023.53 1023.10 1022.74 1022.48 1022.33
1032.68 1032.73 1032.61 1032.34 1031.94 1031.44 1030.89 1030.31 1029.75 1029.23 1028.78 1028.43 1028.18 1028.06 1028.04 1028.12 1028.28 1028.48 1028.69 1028.87 1029.01 1029.08 1029.07 1028.99 1028.83 1028.63 1028.39 1028.12 1027.85 1027.56 1027.27 1026.95 1026.60 1026.22 1025.78 1025.31 1024.81 1024.29 1023.78 1023.31 1022.89 1022.54 1022.28 1022.10
1032.72 1032.66 1032.41 1032.01 1031.48 1030.87 1030.22 1029.58 1028.98 1028.47 1028.07 1027.80 1027.66 1027.63 1027.72 1027.88 1028.09 1028.31 1028.51 1028.66 1028.74 1028.75 1028.68 1028.53 1028.33 1028.10 1027.83 1027.56 1027.29 1027.01 1026.72 1026.41 1026.07 1025.70 1025.30 1024.86 1024.40 1023.94 1023.48 1023.06 1022.68 1022.36 1022.10 1021.92
1032.34 1032.14 1031.77 1031.26 1030.65 1029.98 1029.30 1028.66 1028.11 1027.67 1027.37 1027.21 1027.18 1027.27 1027.44 1027.66 1027.89 1028.10 1028.26 1028.36 1028.37 1028.30 1028.16 1027.97 1027.73 1027.46 1027.19 1026.91 1026.63 1026.35 1026.06 1025.76 1025.43 1025.08 1024.71 1024.31 1023.91 1023.51 1023.12 1022.76 1022.44 1022.17 1021.94 1021.75
1031.56 1031.23 1030.76 1030.17 1029.52 1028.84 1028.19 1027.62 1027.17 1026.85 1026.68 1026.65 1026.75 1026.93 1027.17 1027.42 1027.66 1027.83 1027.94 1027.96 1027.90 1027.76 1027.55 1027.31 1027.03 1026.75 1026.46 1026.17 1025.89 1025.60 1025.31 1025.00 1024.68 1024.35 1024.00 1023.65 1023.31 1022.98 1022.67 1022.40 1022.14 1021.92 1021.72 1021.55
1030.53 1030.10 1029.56 1028.94 1028.29 1027.65 1027.08 1026.62 1026.29 1026.11 1026.08 1026.17 1026.37 1026.63 1026.91 1027.18 1027.38 1027.51 1027.55 1027.49 1027.35 1027.14 1026.88 1026.59 1026.28 1025.98 1025.67 1025.38 1025.08 1024.78 1024.47 1024.16 1023.83 1023.51 1023.18 1022.88 1022.59 1022.34 1022.11 1021.91 1021.73 1021.56 1021.41 1021.25
1029.45 1028.98 1028.43 1027.83 1027.22 1026.66 1026.19 1025.84 1025.63 1025.57 1025.65 1025.84 1026.11 1026.41 1026.69 1026.93 1027.09 1027.15 1027.10 1026.97 1026.75 1026.48 1026.17 1025.84 1025.51 1025.18 1024.86 1024.54 1024.22 1023.90 1023.57 1023.23 1022.89 1022.57 1022.26 1021.98 1021.75 1021.55 1021.40 1021.27 1021.16 1021.06 1020.94 1020.81
1028.58 1028.14 1027.64 1027.11 1026.58 1026.11 1025.74 1025.48 1025.37 1025.39 1025.53 1025.75 1026.03 1026.31 1026.55 1026.72 1026.80 1026.77 1026.64 1026.43 1026.14 1025.81 1025.45 1025.09 1024.73 1024.38 1024.03 1023.69 1023.34 1022.98 1022.61 1022.24 1021.88 1021.54 1021.24 1020.99 1020.79 1020.65 1020.55 1020.49 1020.44 1020.39 1020.33 1020.24
1028.14 1027.81 1027.42 1026.99 1026.57 1026.19 1025.89 1025.70 1025.62 1025.66 1025.78 1025.97 1026.18 1026.38 1026.52 1026.59 1026.56 1026.42 1026.20 1025.90 1025.54 1025.15 1024.75 1024.35 1023.97 1023.59 1023.21 1022.83 1022.44 1022.04 1021.63 1021.23 1020.84 1020.48 1020.17 1019.93 1019.76 1019.65 1019.61 1019.60 1019.60 1019.61 1019.60 1019.56
1028.28 1028.11 1027.87 1027.58 1027.26 1026.96 1026.71 1026.52 1026.42 1026.40 1026.44 1026.51 1026.59 1026.64 1026.63 1026.55 1026.38 1026.12 1025.79 1025.40 1024.97 1024.53 1024.09 1023.66 1023.24 1022.82 1022.41 1021.99 1021.56 1021.11 1020.66 1020.22 1019.80 1019.42 1019.11 1018.87 1018.72 1018.64 1018.63 1018.67 1018.73 1018.79 1018.83 1018.86
Thickness
5544 5536 5529 5529 5530 5531 5527 5523 5521 5521 5520 5515 5509 5509 5512 5509 5504 5501 5498 5497 5496 5496 5496 5496 5495 5494 5493 5493 5494 5495 5495 5495 5495 5496 5496 5497 5498 5499 5500 5502 5503 5505 5507 5510
5528 5521 5525 5524 5521 5519 5515 5511 5508 5508 5507 5502 5493 5496 5499 5497 5493 5490 5487 5485 5484 5483 5482 5482 5480 5480 5480 5480 5481 5481 5482 5483 5483 5484 5485 5486 5487 5487 5489 5490 5491 5493 5495 5498
5519 5515 5516 5514 5508 5507 5504 5498 5497 5494 5490 5485 5481 5489 5488 5487 5481 5478 5474 5472 5470 5470 5467 5466 5466 5465 5465 5466 5467 5469 5469 5470 5471 5472 5472 5473 5474 5474 5475 5477 5479 5481 5484 5486
5503 5504 5505 5501 5496 5493 5493 5491 5487 5482 5472 5466 5467 5466 5476 5470 5466 5465 5459 5455 5453 5453 5452 5452 5451 5450 5450 5451 5453 5455 5456 5457 5458 5459 5460 5461 5462 5462 5464 5465 5467 5470 5472 5475
5494 5493 5492 5490 5487 5481 5477 5475 5470 5467 5456 5448 5447 5444 5460 5453 5455 5452 5446 5443 5440 5438 5438 5437 5437 5437 5437 5437 5439 5441 5443 5445 5446 5447 5448 5448 5449 5451 5452 5454 5456 5458 5461 5463
5483 5481 5479 5477 5475 5471 5463 5457 5451 5441 5437 5439 5438 5433 5443 5435 5439 5437 5433 5430 5427 5424 5423 5423 5423 5422 5423 5423 5425 5427 5429 5432 5433 5434 5435 5436 5437 5438 5440 5442 5444 5447 5449 5451
5472 5472 5467 5464 5462 5457 5450 5442 5433 5426 5416 5427 5421 5419 5425 5420 5418 5417 5415 5412 5409 5408 5407 5407 5408 5408 5409 5410 5411 5413 5415 5418 5420 5421 5423 5425 5426 5427 5429 5431 5433 5435 5437 5439
5455 5456 5454 5449 5447 5439 5432 5432 5424 5418 5409 5408 5403 5403 5410 5405 5401 5399 5397 5395 5394 5392 5391 5393 5393 5394 5394 5396 5397 5399 5402 5404 5407 5409 5410 5412 5414 5415 5417 5419 5422 5424 5426 5428
5436 5440 5438 5436 5432 5430 5421 5409 5408 5395 5383 5380 5390 5386 5392 5395 5391 5387 5385 5382 5378 5376 5376 5376 5378 5379 5379 5381 5383 5384 5388 5391 5394 5396 5398 5400 5402 5404 5405 5407 5409 5411 5414 5416
5422 5420 5422 5419 5420 5412 5409 5397 5385 5383 5383 5382 5384 5376 5381 5384 5381 5376 5372 5367 5364 5362 5362 5362 5363 5364 5366 5367 5368 5371 5374 5377 5381 5383 5385 5388 5389 5391 5393 5395 5397 5399 5401 5403
5408 5404 5405 5403 5398 5397 5390 5384 5378 5370 5369 5370 5368 5377 5374 5370 5367 5360 5357 5353 5350 5348 5347 5347 5348 5349 5351 5353 5355 5358 5361 5364 5367 5370 5373 5375 5377 5380 5382 5384 5385 5387 5389 5391
5393 5385 5383 5387 5383 5379 5373 5366 5360 5365 5361 5349 5347 5358 5361 5353 5350 5345 5342 5339 5337 5336 5334 5334 5334 5335 5337 5339 5342 5344 5347 5350 5354 5357 5360 5362 5365 5368 5370 5372 5374 5375 5377 5379
5383 5376 5376 5384 5375 5361 5356 5347 5343 5341 5341 5331 5334 5348 5347 5339 5337 5334 5329 5325 5323 5323 5323 5322 5322 5322 5324 5326 5329 5331 5334 5337 5340 5343 5346 5350 5353 5355 5357 5359 5361 5363 5365 5367
5381 5367 5365 5371 5367 5352 5341 5336 5327 5326 5326 5320 5321 5334 5337 5331 5325 5321 5317 5313 5310 5310 5310 5310 5309 5310 5311 5313 5315 5318 5322 5325 5328 5331 5333 5336 5340 5343 5345 5347 5349 5350 5352 5354
5367 5356 5344 5343 5343 5336 5332 5329 5320 5315 5317 5318 5324 5317 5322 5318 5310 5306 5303 5301 5301 5300 5300 5299 5298 5299 5300 5302 5304 5307 5310 5313 5316 5318 5321 5324 5327 5330 5333 5335 5336 5338 5339 5341
5349 5343 5335 5334 5335 5325 5323 5323 5317 5311 5306 5304 5306 5307 5307 5299 5294 5293 5290 5289 5288 5287 5287 5288 5288 5288 5289 5290 5293 5295 5298 5301 5304 5306 5310 5313 5315 5318 5321 5322 5324 5325 5326 5328
5333 5328 5328 5329 5323 5322 5321 5317 5307 5300 5294 5294 5296 5300 5292 5290 5288 5284 5280 5278 5276 5275 5275 5275 5275 5275 5277 5278 5280 5283 5286 5290 5292 5295 5298 5301 5303 5306 5308 5310 5311 5312 5314 5315
5324 5320 5314 5310 5309 5314 5324 5302 5298 5294 5286 5280 5282 5281 5278 5276 5274 5270 5267 5264 5263 5262 5262 5262 5262 5264 5265 5266 5269 5272 5275 5278 5281 5284 5287 5289 5292 5294 5296 5297 5299 5300 5301 5303
5318 5315 5305 5298 5293 5300 5307 5295 5284 5283 5284 5275 5270 5269 5265 5263 5264 5264 5261 5256 5253 5251 5250 5250 5250 5252 5254 5256 5258 5261 5264 5267 5270 5273 5275 5277 5280 5282 5284 5286 5287 5288 5289 5292
5305 5301 5295 5286 5292 5296 5303 5284 5277 5276 5278 5272 5262 5260 5255 5255 5259 5261 5251 5246 5244 5242 5241 5241 5241 5242 5243 5246 5247 5249 5252 5256 5258 5261 5264 5266 5268 5271 5273 5274 5275 5276 5278 5280
5292 5286 5283 5279 5278 5284 5278 5270 5271 5273 5278 5263 5256 5252 5247 5244 5244 5243 5239 5237 5235 5233 5232 5232 5232 5232 5233 5235 5237 5239 5242 5244 5247 5250 5253 5256 5258 5259 5261 5263 5264 5265 5267 5269
5282 5278 5272 5268 5266 5276 5266 5261 5261 5262 5256 5252 5248 5244 5239 5236 5234 5232 5230 5228 5227 5225 5224 5224 5223 5224 5224 5225 5227 5229 5231 5234 5236 5239 5242 5244 5246 5248 5251 5252 5254 5255 5256 5258
5270 5270 5266 5263 5272 5265 5253 5252 5250 5246 5243 5241 5238 5235 5231 5227 5225 5223 5221 5220 5218 5217 5216 5216 5214 5215 5216 5217 5218 5219 5221 5223 5225 5227 5229 5232 5234 5236 5239 5240 5242 5243 5245 5247
5264 5257 5258 5254 5258 5253 5247 5243 5240 5237 5234 5233 5230 5227 5224 5220 5218 5215 5214 5212 5210 5210 5209 5208 5207 5207 5208 5208 5209 5209 5211 5212 5214 5215 5218 5220 5222 5225 5226 5228 5230 5232 5233 5236
5258 5249 5247 5248 5248 5246 5246 5239 5235 5231 5228 5226 5223 5221 5217 5214 5211 5208 5206 5204 5203 5203 5202 5201 5199 5199 5199 5199 5199 5200 5201 5202 5203 5205 5207 5209 5212 5213 5215 5217 5218 5220 5222 5225
5247 5242 5242 5249 5245 5238 5239 5235 5229 5225 5223 5220 5217 5214 5211 5208 5204 5201 5199 5197 5195 5195 5194 5193 5192 5191 5191 5191 5191 5192 5192 5192 5194 5196 5197 5199 5201 5202 5204 5205 5208 5210 5212 5215